Regional Weather Roundup
Issued by NWS

Home | Current Version | Previous Version | Text Only | Print | Product List | Glossary On
Versions: 1 2 3 4 5 6 7 8 9 10 11 12 13 14 15 16 17 18 19 20 21 22 23 24 25 26 27 28 29 30 31 32 33 34 35 36 37 38 39 40 41 42 43 44 45 46 47 48 49 50
000
ASUS46 KSTO 230215
RWRCA

NORTHERN AND CENTRAL CA REGIONAL WEATHER ROUNDUP
NATIONAL WEATHER SERVICE SACRAMENTO CA
700 PM PDT WED MAR 22 2017

NOTE: FAIR INDICATES FEW OR NO CLOUDS BELOW 12,000 FEET WITH NO
SIGNIFICANT WEATHER AND/OR OBSTRUCTIONS TO VISIBILITY.

CAZ001-003-230300-
NORTHWEST AREA

CITY           SKY/WX    TMP DP  RH WIND       PRES   REMARKS
CRESCENT CITY  CLOUDY    49  44  83 N6        30.14R
UKIAH          CLEAR     51  39  63 NW9       30.07R
$$

CAZ006-505>513-230300-
BAY AREA

CITY           SKY/WX    TMP DP  RH WIND       PRES   REMARKS
SANTA ROSA     PTCLDY    54  43  66 W13       30.05R
SAN RAFAEL     N/A       55  MM  MM MISG
NAPA           CLEAR     56  44  64 W16       30.06R
CONCORD        PTCLDY    56  42  59 W16       30.06R
OAKLAND CITY   N/A      MM  MM  MM MISG
OAKLAND        PTCLDY    57  45  64 W23       30.08R
SAN FRAN CITY  N/A       54  MM  64 MISG
SAN FRAN ARPT  PTCLDY    54  43  66 W17G26    30.09S
LIVERMORE      CLEAR     53  41  63 W17       30.06R
HAYWARD        PTCLDY    56  41  57 MISG      30.08R
REDWOOD CITY   N/A       54  MM  67 MISG
MOFFETT ARPT   CLEAR     55  42  61 W10G21    30.09R
SAN JOSE ARPT  PTCLDY    54  42  64 NW15      30.08R
$$
CAZ034-037-514>518-230300-
CENTRAL COAST

CITY           SKY/WX    TMP DP  RH WIND       PRES   REMARKS
WATSONVILLE    CLEAR     56  41  57 W14G22    30.07R
SALINAS        PTCLDY    56  45  66 W17G25    30.08R
MONTEREY       CLEAR     54  44  69 W15G22    30.10R
SAN LUIS OBISP CLEAR     56  46  69 NW10      30.05S
SANTA MARIA    PTCLDY    54  48  80 NW18      30.06R
$$
CAZ015-016-230300-
NORTHERN SACRAMENTO VALLEY

CITY           SKY/WX    TMP DP  RH WIND       PRES   REMARKS
REDDING        PTCLDY    52  46  80 CALM      30.03R
RED BLUFF      PTCLDY    50  47  89 SW7       30.05R
OROVILLE       MOCLDY    51  43  74 N8G20     30.05R
$$
CAZ016>018-230300-
SOUTHERN SACRAMENTO VALLEY

CITY           SKY/WX    TMP DP  RH WIND       PRES   REMARKS
AUBURN         PTCLDY    52  43  71 SW7       30.03R
BEALE AFB      CLOUDY    53  45  75 NW15G24   30.03R
LINCOLN        FAIR      55  45  67 S7        30.02R
MARYSVILLE     LGT RAIN  51  44  77 N12G22    30.04R
SAC INTL ARPT  MOCLDY    57  46  66 S8        30.01R
MATHER AIRPORT PTCLDY    57  46  67 SW10      30.03R
DOWNTOWN SAC   N/A       58  MM  MM MISG
SAC EXEC ARPT  PTCLDY    56  44  64 SW12      30.03R
VACAVILLE      CLEAR     56  44  64 W7        30.04R
TRAVIS AFB     CLEAR     55  44  66 W13       30.02R
$$
CAZ019>021-230300-
SAN JOAQUIN VALLEY

CITY           SKY/WX    TMP DP  RH WIND       PRES   REMARKS
STOCKTON       PTCLDY    57  47  69 W13       30.03S
MODESTO        MOCLDY    59  46  62 W10       30.03R
MERCED         CLEAR     53  45  74 W6        30.03R
LEMOORE        MOCLDY    55  50  83 NW9       30.04R
FRESNO         CLOUDY    58  47  66 W9        30.02F
HANFORD        CLOUDY    54  50  86 CALM      30.04S
PORTERVILLE    LGT RAIN  52  49  89 N5        30.02F
BAKERSFIELD    CLOUDY    55  47  74 W5        30.02S
$$
CAZ011-012-071-230300-
NORTHERN MOUNTAINS

CITY           SKY/WX    TMP DP  RH WIND       PRES   REMARKS
YREKA          CLOUDY    47  36  65 W13       30.01R
MOUNT SHASTA   PTCLDY    42  38  85 CALM      29.98R
ALTURAS        CLOUDY    40  35  83 S6        29.97R
$$
CAZ011-012-071-230300-
SIERRA NEVADA MTNS

CITY           SKY/WX    TMP DP  RH WIND       PRES   REMARKS
BLUE CANYON    SNOW      32  32 100 S6        30.01R VSB 1/4 WCI  26
TRUCKEE        PTCLDY    32  27  80 CALM      29.97R
TAHOE VLY ARPT PTCLDY    33  25  72 S6        29.95S WCI  28
MAMMOTH LAKES  FAIR      32  26  77 W21G29    29.92R WCI  20
$$



USA.gov is the U.S. government's official web portal to all federal, state and local government web resources and services.